Time,TemperatureF,DewpointF,PressureIn,WindDirection,WindDirectionDegrees,WindSpeedMPH,WindSpeedGustMPH,Humidity,HourlyPrecipIn,Conditions,Clouds,dailyrainin,SoftwareType,DateUTC
2013-06-02 00:01:00,64.8,60.1,29.91,SW,225,0.7,1.6,85,0.00,,,0.00,meteobridge,2013-06-02 05:01:00,
2013-06-02 00:07:00,64.6,59.9,29.91,West,270,1.6,2.2,85,0.00,,,0.00,meteobridge,2013-06-02 05:07:00,
2013-06-02 00:12:00,64.6,59.7,29.91,West,270,1.6,1.6,84,0.00,,,0.00,meteobridge,2013-06-02 05:12:00,
2013-06-02 00:17:00,64.4,59.7,29.91,SW,225,0.7,1.6,85,0.00,,,0.00,meteobridge,2013-06-02 05:17:00,
2013-06-02 00:22:00,64.0,59.2,29.91,SE,135,2.2,2.2,84,0.00,,,0.00,meteobridge,2013-06-02 05:22:00,
2013-06-02 00:27:00,64.0,58.8,29.91,South,180,0.0,0.0,83,0.00,,,0.00,meteobridge,2013-06-02 05:27:00,
2013-06-02 00:32:00,63.9,59.0,29.91,South,180,0.0,0.0,84,0.00,,,0.00,meteobridge,2013-06-02 05:32:00,
2013-06-02 00:38:00,63.5,58.6,29.91,SE,135,0.0,0.7,84,0.00,,,0.00,meteobridge,2013-06-02 05:38:00,
2013-06-02 00:43:00,63.3,58.8,29.91,SE,135,0.0,0.0,85,0.00,,,0.00,meteobridge,2013-06-02 05:43:00,
2013-06-02 00:48:00,63.1,58.8,29.91,South,180,0.0,0.0,86,0.00,,,0.00,meteobridge,2013-06-02 05:48:00,
2013-06-02 00:53:00,63.0,58.6,29.91,South,180,0.7,0.7,86,0.00,,,0.00,meteobridge,2013-06-02 05:53:00,
2013-06-02 00:58:00,63.1,58.8,29.91,West,270,0.0,1.6,86,0.00,,,0.00,meteobridge,2013-06-02 05:58:00,
2013-06-02 01:03:00,63.1,58.8,29.91,South,180,0.7,0.7,86,0.00,,,0.00,meteobridge,2013-06-02 06:03:00,
2013-06-02 01:09:00,63.5,58.6,29.91,West,270,2.2,2.2,84,0.00,,,0.00,meteobridge,2013-06-02 06:09:00,
2013-06-02 01:14:00,64.0,58.8,29.91,NW,315,1.6,4.5,83,0.00,,,0.00,meteobridge,2013-06-02 06:14:00,
2013-06-02 01:19:00,64.0,58.8,29.91,SW,225,0.7,1.6,83,0.00,,,0.00,meteobridge,2013-06-02 06:19:00,
2013-06-02 01:24:00,63.9,58.6,29.91,NW,315,0.0,0.7,83,0.00,,,0.00,meteobridge,2013-06-02 06:24:00,
2013-06-02 01:29:00,63.7,58.8,29.91,West,270,1.6,2.2,84,0.00,,,0.00,meteobridge,2013-06-02 06:29:00,
2013-06-02 01:34:00,63.7,58.8,29.91,SW,225,2.2,2.2,84,0.00,,,0.00,meteobridge,2013-06-02 06:34:00,
2013-06-02 01:40:00,63.9,59.0,29.91,SE,135,0.7,1.6,84,0.00,,,0.00,meteobridge,2013-06-02 06:40:00,
2013-06-02 01:45:00,63.7,59.0,29.91,South,180,1.6,1.6,85,0.00,,,0.00,meteobridge,2013-06-02 06:45:00,
2013-06-02 01:50:00,63.5,58.8,29.91,SE,135,1.6,1.6,85,0.00,,,0.00,meteobridge,2013-06-02 06:50:00,
2013-06-02 01:55:00,63.3,58.8,29.91,West,270,0.7,0.7,85,0.00,,,0.00,meteobridge,2013-06-02 06:55:00,
2013-06-02 02:00:00,63.1,58.6,29.91,West,270,1.6,3.1,85,0.00,,,0.00,meteobridge,2013-06-02 07:00:00,
2013-06-02 02:05:00,63.1,58.8,29.91,SW,225,0.0,2.2,86,0.00,,,0.00,meteobridge,2013-06-02 07:05:00,
2013-06-02 02:11:00,63.0,58.6,29.92,SW,225,0.0,0.7,86,0.00,,,0.00,meteobridge,2013-06-02 07:11:00,
2013-06-02 02:16:00,62.8,58.8,29.92,SW,225,0.7,0.7,87,0.00,,,0.00,meteobridge,2013-06-02 07:16:00,
2013-06-02 02:21:00,62.4,58.8,29.92,SW,225,0.7,0.7,88,0.00,,,0.00,meteobridge,2013-06-02 07:21:00,
2013-06-02 02:26:00,62.2,59.0,29.91,WSW,248,0.0,1.6,89,0.00,,,0.00,meteobridge,2013-06-02 07:26:00,
2013-06-02 02:31:00,62.2,59.2,29.91,SW,225,1.6,2.2,90,0.00,,,0.00,meteobridge,2013-06-02 07:31:00,
2013-06-02 02:36:00,62.2,59.2,29.91,SW,225,0.7,2.2,90,0.00,,,0.00,meteobridge,2013-06-02 07:36:00,
2013-06-02 02:42:00,62.4,59.7,29.91,SW,225,0.7,1.6,91,0.00,,,0.00,meteobridge,2013-06-02 07:42:00,
2013-06-02 02:47:00,62.4,59.4,29.91,West,270,2.2,2.2,90,0.00,,,0.00,meteobridge,2013-06-02 07:47:00,
2013-06-02 02:52:00,62.6,59.0,29.91,West,270,1.6,1.6,88,0.00,,,0.00,meteobridge,2013-06-02 07:52:00,
2013-06-02 02:57:00,62.4,59.2,29.91,West,270,3.1,3.1,89,0.00,,,0.00,meteobridge,2013-06-02 07:57:00,
2013-06-02 03:02:00,62.6,58.6,29.91,NW,315,0.0,0.0,87,0.00,,,0.00,meteobridge,2013-06-02 08:02:00,
2013-06-02 03:07:00,62.6,58.6,29.91,SW,225,1.6,1.6,87,0.00,,,0.00,meteobridge,2013-06-02 08:07:00,
2013-06-02 03:12:00,62.6,58.6,29.92,West,270,1.6,1.6,87,0.00,,,0.00,meteobridge,2013-06-02 08:12:00,
2013-06-02 03:18:00,62.8,58.5,29.91,South,180,2.2,3.1,86,0.00,,,0.00,meteobridge,2013-06-02 08:18:00,
2013-06-02 03:23:00,63.0,58.5,29.92,South,180,6.0,6.0,85,0.00,,,0.00,meteobridge,2013-06-02 08:23:00,
2013-06-02 03:28:00,63.1,58.6,29.91,SE,135,0.7,0.7,85,0.00,,,0.00,meteobridge,2013-06-02 08:28:00,
2013-06-02 03:33:00,63.1,58.6,29.92,South,180,1.6,1.6,85,0.00,,,0.00,meteobridge,2013-06-02 08:33:00,
2013-06-02 03:38:00,63.1,58.3,29.91,WSW,248,1.6,1.6,84,0.00,,,0.00,meteobridge,2013-06-02 08:38:00,
2013-06-02 03:43:00,63.0,58.5,29.92,North,0,0.0,0.7,85,0.00,,,0.00,meteobridge,2013-06-02 08:43:00,
2013-06-02 03:49:00,63.0,58.5,29.92,NW,315,2.2,2.2,85,0.00,,,0.00,meteobridge,2013-06-02 08:49:00,
2013-06-02 03:54:00,63.1,58.6,29.92,West,270,1.6,3.8,85,0.00,,,0.00,meteobridge,2013-06-02 08:54:00,
2013-06-02 03:59:00,63.1,58.3,29.92,NW,315,2.2,2.2,84,0.00,,,0.00,meteobridge,2013-06-02 08:59:00,
2013-06-02 04:04:00,63.0,58.1,29.92,North,0,2.2,3.1,84,0.00,,,0.00,meteobridge,2013-06-02 09:04:00,
2013-06-02 04:09:00,63.0,58.1,29.92,West,270,1.6,2.2,84,0.00,,,0.00,meteobridge,2013-06-02 09:09:00,
2013-06-02 04:14:00,63.0,58.5,29.92,SE,135,2.2,2.2,85,0.00,,,0.00,meteobridge,2013-06-02 09:14:00,
2013-06-02 04:20:00,63.0,58.1,29.91,North,0,1.6,2.2,84,0.00,,,0.00,meteobridge,2013-06-02 09:20:00,
2013-06-02 04:25:00,63.0,58.5,29.92,NW,315,2.2,2.2,85,0.00,,,0.00,meteobridge,2013-06-02 09:25:00,
2013-06-02 04:30:00,63.0,58.5,29.92,East,90,1.6,2.2,85,0.00,,,0.00,meteobridge,2013-06-02 09:30:00,
2013-06-02 04:35:00,62.8,58.3,29.92,West,270,2.2,2.2,85,0.00,,,0.00,meteobridge,2013-06-02 09:35:00,
2013-06-02 04:40:00,62.8,58.3,29.92,West,270,1.6,1.6,85,0.00,,,0.00,meteobridge,2013-06-02 09:40:00,
2013-06-02 04:45:00,62.8,58.3,29.93,South,180,1.6,1.6,85,0.00,,,0.00,meteobridge,2013-06-02 09:45:00,
2013-06-02 04:51:00,62.8,58.5,29.93,South,180,0.7,0.7,86,0.00,,,0.00,meteobridge,2013-06-02 09:51:00,
2013-06-02 04:56:00,62.8,58.5,29.93,North,0,1.6,2.2,86,0.00,,,0.00,meteobridge,2013-06-02 09:56:00,
2013-06-02 05:01:00,62.8,58.5,29.93,West,270,1.6,1.6,86,0.00,,,0.00,meteobridge,2013-06-02 10:01:00,
2013-06-02 05:06:00,62.8,58.5,29.94,West,270,1.6,1.6,86,0.00,,,0.00,meteobridge,2013-06-02 10:06:00,
2013-06-02 05:11:00,62.8,58.5,29.94,East,90,0.7,0.7,86,0.00,,,0.00,meteobridge,2013-06-02 10:11:00,
2013-06-02 05:16:00,62.8,58.5,29.95,SW,225,2.2,2.2,86,0.00,,,0.00,meteobridge,2013-06-02 10:16:00,
2013-06-02 05:22:00,62.8,58.5,29.94,West,270,1.6,3.8,86,0.00,,,0.00,meteobridge,2013-06-02 10:22:00,
2013-06-02 05:27:00,62.8,58.5,29.95,South,180,3.1,3.1,86,0.00,,,0.00,meteobridge,2013-06-02 10:27:00,
2013-06-02 05:32:00,62.8,58.5,29.95,NNW,338,1.6,1.6,86,0.00,,,0.00,meteobridge,2013-06-02 10:32:00,
2013-06-02 05:37:00,62.8,58.5,29.95,West,270,1.6,1.6,86,0.00,,,0.00,meteobridge,2013-06-02 10:37:00,
2013-06-02 05:42:00,62.8,58.8,29.95,NE,45,1.6,1.6,87,0.00,,,0.00,meteobridge,2013-06-02 10:42:00,
2013-06-02 05:47:00,62.8,58.5,29.95,West,270,1.6,2.2,86,0.00,,,0.00,meteobridge,2013-06-02 10:47:00,
2013-06-02 05:53:00,62.8,58.8,29.95,WSW,248,0.0,0.0,87,0.00,,,0.00,meteobridge,2013-06-02 10:53:00,
2013-06-02 05:58:00,62.8,59.2,29.95,WSW,248,0.7,1.6,88,0.00,,,0.00,meteobridge,2013-06-02 10:58:00,
2013-06-02 06:03:00,62.8,58.8,29.95,NW,315,2.2,3.8,87,0.00,,,0.00,meteobridge,2013-06-02 11:03:00,
2013-06-02 06:08:00,62.8,58.5,29.95,West,270,1.6,1.6,86,0.00,,,0.00,meteobridge,2013-06-02 11:08:00,
2013-06-02 06:13:00,62.8,58.5,29.95,SW,225,0.7,1.6,86,0.00,,,0.00,meteobridge,2013-06-02 11:13:00,
2013-06-02 06:18:00,62.6,58.3,29.95,WSW,248,1.6,1.6,86,0.00,,,0.00,meteobridge,2013-06-02 11:18:00,
2013-06-02 06:24:00,62.6,58.3,29.95,South,180,1.6,2.2,86,0.00,,,0.00,meteobridge,2013-06-02 11:24:00,
2013-06-02 06:29:00,62.6,58.6,29.95,East,90,3.8,3.8,87,0.00,,,0.00,meteobridge,2013-06-02 11:29:00,
2013-06-02 06:34:00,62.6,58.6,29.96,West,270,1.6,2.2,87,0.00,,,0.00,meteobridge,2013-06-02 11:34:00,
2013-06-02 06:39:00,62.6,58.6,29.96,West,270,4.5,4.5,87,0.00,,,0.00,meteobridge,2013-06-02 11:39:00,
2013-06-02 06:44:00,62.6,58.6,29.96,NW,315,2.2,3.1,87,0.00,,,0.00,meteobridge,2013-06-02 11:44:00,
2013-06-02 06:49:00,62.6,58.6,29.95,NW,315,1.6,1.6,87,0.00,,,0.00,meteobridge,2013-06-02 11:49:00,
2013-06-02 06:55:00,62.6,58.6,29.96,West,270,1.6,3.1,87,0.00,,,0.00,meteobridge,2013-06-02 11:55:00,
2013-06-02 07:00:00,62.8,59.2,29.96,SW,225,2.2,2.2,88,0.00,,,0.00,meteobridge,2013-06-02 12:00:00,
2013-06-02 07:05:00,62.8,58.8,29.96,NW,315,2.2,2.2,87,0.00,,,0.00,meteobridge,2013-06-02 12:05:00,
2013-06-02 07:10:00,62.8,58.8,29.96,NNW,338,0.7,0.7,87,0.00,,,0.00,meteobridge,2013-06-02 12:10:00,
2013-06-02 07:15:00,63.1,59.5,29.96,East,90,1.6,1.6,88,0.00,,,0.00,meteobridge,2013-06-02 12:15:00,
2013-06-02 07:20:00,63.3,59.4,29.96,South,180,2.2,3.8,87,0.00,,,0.00,meteobridge,2013-06-02 12:20:00,
2013-06-02 07:25:00,63.3,59.4,29.97,ENE,68,2.2,2.2,87,0.00,,,0.00,meteobridge,2013-06-02 12:25:00,
2013-06-02 07:31:00,63.5,59.5,29.97,East,90,3.1,3.1,87,0.00,,,0.00,meteobridge,2013-06-02 12:31:00,
2013-06-02 07:36:00,63.5,59.2,29.97,East,90,0.7,1.6,86,0.00,,,0.00,meteobridge,2013-06-02 12:36:00,
2013-06-02 07:41:00,63.5,59.2,29.98,SW,225,0.0,1.6,86,0.00,,,0.00,meteobridge,2013-06-02 12:41:00,
2013-06-02 07:46:00,63.5,59.2,29.97,South,180,0.0,1.6,86,0.00,,,0.00,meteobridge,2013-06-02 12:46:00,
2013-06-02 07:51:00,63.7,59.4,29.97,SSE,158,0.7,1.6,86,0.00,,,0.00,meteobridge,2013-06-02 12:51:00,
2013-06-02 07:56:00,63.9,59.5,29.97,ESE,113,2.2,3.8,86,0.00,,,0.00,meteobridge,2013-06-02 12:56:00,
2013-06-02 08:02:00,63.9,59.2,29.98,East,90,1.6,1.6,85,0.00,,,0.00,meteobridge,2013-06-02 13:02:00,
2013-06-02 08:07:00,64.0,59.7,29.98,NE,45,3.1,3.1,86,0.00,,,0.00,meteobridge,2013-06-02 13:07:00,
2013-06-02 08:12:00,64.2,59.9,29.98,NW,315,0.0,0.7,86,0.00,,,0.00,meteobridge,2013-06-02 13:12:00,
2013-06-02 08:17:00,64.4,60.1,29.98,East,90,1.6,1.6,86,0.00,,,0.00,meteobridge,2013-06-02 13:17:00,
2013-06-02 08:22:00,64.6,60.3,29.98,NW,315,2.2,2.2,86,0.00,,,0.00,meteobridge,2013-06-02 13:22:00,
2013-06-02 08:27:00,64.6,60.6,29.98,North,0,1.6,3.8,87,0.00,,,0.00,meteobridge,2013-06-02 13:27:00,
2013-06-02 08:33:00,64.8,60.4,29.98,NW,315,1.6,3.8,86,0.00,,,0.00,meteobridge,2013-06-02 13:33:00,
2013-06-02 08:38:00,65.1,60.8,29.98,NW,315,3.8,3.8,86,0.00,,,0.00,meteobridge,2013-06-02 13:38:00,
2013-06-02 08:43:00,65.3,60.6,29.98,SW,225,1.6,3.1,85,0.00,,,0.00,meteobridge,2013-06-02 13:43:00,
2013-06-02 08:48:00,65.5,60.8,29.98,SW,225,0.7,3.1,85,0.00,,,0.00,meteobridge,2013-06-02 13:48:00,
2013-06-02 08:53:00,65.8,61.2,29.98,NE,45,1.6,1.6,85,0.00,,,0.00,meteobridge,2013-06-02 13:53:00,
2013-06-02 08:58:00,66.6,60.6,29.98,West,270,1.6,3.1,81,0.00,,,0.00,meteobridge,2013-06-02 13:58:00,
2013-06-02 09:04:00,66.7,60.8,29.98,West,270,1.6,1.6,81,0.00,,,0.00,meteobridge,2013-06-02 14:04:00,
2013-06-02 09:09:00,66.7,60.4,29.98,SSW,203,2.2,2.2,80,0.00,,,0.00,meteobridge,2013-06-02 14:09:00,
2013-06-02 09:14:00,66.9,61.0,29.99,West,270,0.7,2.2,81,0.00,,,0.00,meteobridge,2013-06-02 14:14:00,
2013-06-02 09:19:00,67.6,61.5,29.99,WNW,293,0.0,2.2,81,0.00,,,0.00,meteobridge,2013-06-02 14:19:00,
2013-06-02 09:24:00,68.0,60.8,29.98,NW,315,2.2,2.2,78,0.00,,,0.00,meteobridge,2013-06-02 14:24:00,
2013-06-02 09:29:00,68.2,60.6,29.98,SW,225,0.7,0.7,77,0.00,,,0.00,meteobridge,2013-06-02 14:29:00,
2013-06-02 09:35:00,68.0,60.4,29.98,West,270,0.7,3.1,77,0.00,,,0.00,meteobridge,2013-06-02 14:35:00,
2013-06-02 09:40:00,67.8,60.3,29.99,South,180,3.8,3.8,77,0.00,,,0.00,meteobridge,2013-06-02 14:40:00,
2013-06-02 09:45:00,68.5,60.3,29.98,NW,315,2.2,2.2,75,0.00,,,0.00,meteobridge,2013-06-02 14:45:00,
2013-06-02 09:50:00,69.6,61.0,29.99,NW,315,1.6,2.2,74,0.00,,,0.00,meteobridge,2013-06-02 14:50:00,
2013-06-02 09:55:00,71.4,61.9,29.99,NW,315,2.2,4.5,72,0.00,,,0.00,meteobridge,2013-06-02 14:55:00,
2013-06-02 10:00:00,71.4,60.8,29.99,SW,225,3.8,4.5,69,0.00,,,0.00,meteobridge,2013-06-02 15:00:00,
2013-06-02 10:06:00,71.2,60.6,29.99,West,270,2.2,3.8,69,0.00,,,0.00,meteobridge,2013-06-02 15:06:00,
2013-06-02 10:11:00,71.1,60.4,29.99,SE,135,3.1,4.5,69,0.00,,,0.00,meteobridge,2013-06-02 15:11:00,
2013-06-02 10:16:00,70.5,59.4,29.99,WNW,293,3.8,3.8,68,0.00,,,0.00,meteobridge,2013-06-02 15:16:00,
2013-06-02 10:21:00,70.0,60.1,29.99,NW,315,3.1,3.1,71,0.00,,,0.00,meteobridge,2013-06-02 15:21:00,
2013-06-02 10:26:00,69.1,59.7,29.99,West,270,3.1,3.1,72,0.00,,,0.00,meteobridge,2013-06-02 15:26:00,
2013-06-02 10:31:00,68.5,59.5,30.00,North,0,3.1,3.8,73,0.00,,,0.00,meteobridge,2013-06-02 15:31:00,
2013-06-02 10:37:00,68.2,59.2,30.00,West,270,0.7,3.1,73,0.00,,,0.00,meteobridge,2013-06-02 15:37:00,
2013-06-02 10:42:00,68.4,59.7,30.00,West,270,1.6,3.1,74,0.00,,,0.00,meteobridge,2013-06-02 15:42:00,
2013-06-02 10:47:00,68.5,59.9,30.00,NW,315,0.7,3.1,74,0.00,,,0.00,meteobridge,2013-06-02 15:47:00,
2013-06-02 10:52:00,68.5,59.9,30.00,NW,315,3.8,3.8,74,0.00,,,0.00,meteobridge,2013-06-02 15:52:00,
2013-06-02 10:57:00,67.6,59.4,30.00,SE,135,2.2,2.2,75,0.00,,,0.00,meteobridge,2013-06-02 15:57:00,
2013-06-02 11:02:00,68.0,60.1,29.99,North,0,1.6,1.6,76,0.00,,,0.00,meteobridge,2013-06-02 16:02:00,
2013-06-02 11:08:00,68.4,59.7,30.00,NE,45,2.2,3.8,74,0.00,,,0.00,meteobridge,2013-06-02 16:08:00,
2013-06-02 11:13:00,68.4,59.4,30.00,North,0,1.6,4.5,73,0.00,,,0.00,meteobridge,2013-06-02 16:13:00,
2013-06-02 11:18:00,68.2,59.2,30.00,WNW,293,5.4,5.4,73,0.00,,,0.00,meteobridge,2013-06-02 16:18:00,
2013-06-02 11:23:00,68.0,59.0,30.01,North,0,3.1,5.4,73,0.00,,,0.00,meteobridge,2013-06-02 16:23:00,
2013-06-02 11:28:00,68.5,59.5,30.00,NW,315,2.2,2.2,73,0.00,,,0.00,meteobridge,2013-06-02 16:28:00,
2013-06-02 11:33:00,68.9,59.2,30.00,WSW,248,3.8,3.8,71,0.00,,,0.00,meteobridge,2013-06-02 16:33:00,
2013-06-02 11:38:00,69.1,58.8,30.00,East,90,5.4,5.4,70,0.00,,,0.00,meteobridge,2013-06-02 16:38:00,
2013-06-02 11:44:00,68.4,57.7,30.01,SW,225,5.4,5.4,69,0.00,,,0.00,meteobridge,2013-06-02 16:44:00,
2013-06-02 11:49:00,68.2,58.5,30.01,East,90,6.0,6.0,71,0.00,,,0.00,meteobridge,2013-06-02 16:49:00,
2013-06-02 11:54:00,67.6,58.6,30.01,West,270,1.6,3.8,73,0.00,,,0.00,meteobridge,2013-06-02 16:54:00,
2013-06-02 11:59:00,66.9,58.8,30.01,West,270,3.1,3.1,75,0.00,,,0.00,meteobridge,2013-06-02 16:59:00,
2013-06-02 12:04:00,66.7,58.6,30.01,North,0,0.7,1.6,75,0.00,,,0.00,meteobridge,2013-06-02 17:04:00,
2013-06-02 12:09:00,67.1,59.7,30.01,West,270,0.7,0.7,77,0.00,,,0.00,meteobridge,2013-06-02 17:09:00,
2013-06-02 12:15:00,68.4,60.1,30.01,West,270,0.7,2.2,75,0.00,,,0.00,meteobridge,2013-06-02 17:15:00,
2013-06-02 12:20:00,69.1,60.4,30.01,NW,315,0.7,1.6,74,0.00,,,0.00,meteobridge,2013-06-02 17:20:00,
2013-06-02 12:25:00,69.4,60.4,30.01,North,0,0.7,1.6,73,0.00,,,0.00,meteobridge,2013-06-02 17:25:00,
2013-06-02 12:30:00,69.1,58.1,30.01,South,180,0.0,5.4,68,0.00,,,0.00,meteobridge,2013-06-02 17:30:00,
2013-06-02 12:35:00,68.5,58.3,30.01,SE,135,2.2,3.1,70,0.00,,,0.00,meteobridge,2013-06-02 17:35:00,
2013-06-02 12:40:00,68.0,59.0,30.01,South,180,0.7,0.7,73,0.00,,,0.00,meteobridge,2013-06-02 17:40:00,
2013-06-02 12:46:00,68.0,59.0,30.02,South,180,1.6,1.6,73,0.00,,,0.00,meteobridge,2013-06-02 17:46:00,
2013-06-02 12:51:00,68.4,59.0,30.01,West,270,3.8,3.8,72,0.00,,,0.00,meteobridge,2013-06-02 17:51:00,
2013-06-02 12:56:00,68.7,58.5,30.01,NW,315,0.7,2.2,70,0.00,,,0.00,meteobridge,2013-06-02 17:56:00,
2013-06-02 13:01:00,69.1,58.8,30.01,South,180,3.1,3.1,70,0.00,,,0.00,meteobridge,2013-06-02 18:01:00,
2013-06-02 13:06:00,69.1,58.8,30.01,South,180,1.6,2.2,70,0.00,,,0.00,meteobridge,2013-06-02 18:06:00,
2013-06-02 13:11:00,68.9,59.9,30.01,SW,225,2.2,2.2,73,0.00,,,0.00,meteobridge,2013-06-02 18:11:00,
2013-06-02 13:17:00,68.4,59.4,30.02,South,180,3.1,3.1,73,0.00,,,0.00,meteobridge,2013-06-02 18:17:00,
2013-06-02 13:22:00,68.4,59.4,30.02,West,270,0.7,0.7,73,0.00,,,0.00,meteobridge,2013-06-02 18:22:00,
2013-06-02 13:27:00,68.5,59.5,30.02,South,180,0.0,1.6,73,0.00,,,0.00,meteobridge,2013-06-02 18:27:00,
2013-06-02 13:32:00,68.9,59.5,30.02,SW,225,1.6,3.8,72,0.00,,,0.00,meteobridge,2013-06-02 18:32:00,
2013-06-02 13:37:00,69.4,60.1,30.02,SW,225,2.2,2.2,72,0.00,,,0.00,meteobridge,2013-06-02 18:37:00,
2013-06-02 13:42:00,69.1,59.4,30.02,SW,225,1.6,3.1,71,0.00,,,0.00,meteobridge,2013-06-02 18:42:00,
2013-06-02 13:48:00,69.1,60.1,30.01,SW,225,1.6,1.6,73,0.00,,,0.00,meteobridge,2013-06-02 18:48:00,
2013-06-02 13:53:00,68.7,59.7,30.02,SW,225,2.2,2.2,73,0.00,,,0.00,meteobridge,2013-06-02 18:53:00,
2013-06-02 13:58:00,68.4,59.4,30.02,South,180,0.7,1.6,73,0.00,,,0.00,meteobridge,2013-06-02 18:58:00,
2013-06-02 14:03:00,68.4,58.6,30.02,South,180,1.6,2.2,71,0.00,,,0.00,meteobridge,2013-06-02 19:03:00,
2013-06-02 14:08:00,68.2,58.5,30.02,SE,135,0.0,3.1,71,0.00,,,0.00,meteobridge,2013-06-02 19:08:00,
2013-06-02 14:13:00,68.2,58.1,30.02,SSW,203,1.6,2.2,70,0.00,,,0.00,meteobridge,2013-06-02 19:13:00,
2013-06-02 14:18:00,68.7,59.0,30.02,SE,135,1.6,1.6,71,0.00,,,0.00,meteobridge,2013-06-02 19:18:00,
2013-06-02 14:23:00,68.9,58.3,30.02,SW,225,1.6,3.1,69,0.00,,,0.00,meteobridge,2013-06-02 19:23:00,
2013-06-02 14:29:00,69.1,59.4,30.02,South,180,1.6,4.5,71,0.00,,,0.00,meteobridge,2013-06-02 19:29:00,
2013-06-02 14:34:00,68.7,58.5,30.02,West,270,3.1,5.4,70,0.00,,,0.00,meteobridge,2013-06-02 19:34:00,
2013-06-02 14:39:00,68.0,57.9,30.02,SW,225,2.2,6.0,70,0.00,,,0.00,meteobridge,2013-06-02 19:39:00,
2013-06-02 14:44:00,67.5,58.1,30.03,SW,225,2.2,2.2,72,0.00,,,0.00,meteobridge,2013-06-02 19:44:00,
2013-06-02 14:49:00,67.6,58.6,30.03,ESE,113,1.6,2.2,73,0.00,,,0.00,meteobridge,2013-06-02 19:49:00,
2013-06-02 14:54:00,67.6,57.6,30.02,East,90,2.2,6.0,70,0.00,,,0.00,meteobridge,2013-06-02 19:54:00,
2013-06-02 15:00:00,67.5,57.7,30.02,SW,225,3.8,3.8,71,0.00,,,0.00,meteobridge,2013-06-02 20:00:00,
2013-06-02 15:05:00,67.3,57.2,30.02,SW,225,1.6,2.2,70,0.00,,,0.00,meteobridge,2013-06-02 20:05:00,
2013-06-02 15:10:00,67.1,57.4,30.03,North,0,3.8,3.8,71,0.00,,,0.00,meteobridge,2013-06-02 20:10:00,
2013-06-02 15:15:00,66.9,57.6,30.03,NW,315,1.6,2.2,72,0.00,,,0.00,meteobridge,2013-06-02 20:15:00,
2013-06-02 15:20:00,67.1,57.4,30.03,West,270,0.7,1.6,71,0.00,,,0.00,meteobridge,2013-06-02 20:20:00,
2013-06-02 15:25:00,67.1,58.5,30.03,West,270,0.7,0.7,74,0.00,,,0.00,meteobridge,2013-06-02 20:25:00,
2013-06-02 15:31:00,67.5,57.7,30.03,East,90,1.6,4.5,71,0.00,,,0.00,meteobridge,2013-06-02 20:31:00,
2013-06-02 15:36:00,67.6,58.3,30.03,NNE,23,1.6,3.8,72,0.00,,,0.00,meteobridge,2013-06-02 20:36:00,
2013-06-02 15:41:00,67.6,57.9,30.03,NE,45,3.8,3.8,71,0.00,,,0.00,meteobridge,2013-06-02 20:41:00,
2013-06-02 15:46:00,68.0,58.6,30.03,North,0,3.1,4.5,72,0.00,,,0.00,meteobridge,2013-06-02 20:46:00,
2013-06-02 15:51:00,67.6,57.9,30.03,East,90,3.8,3.8,71,0.00,,,0.00,meteobridge,2013-06-02 20:51:00,
2013-06-02 15:56:00,67.5,58.1,30.03,North,0,5.4,7.6,72,0.00,,,0.00,meteobridge,2013-06-02 20:56:00,
2013-06-02 16:02:00,67.1,57.7,30.03,SE,135,0.7,2.2,72,0.00,,,0.00,meteobridge,2013-06-02 21:02:00,
2013-06-02 16:07:00,67.1,58.1,30.02,North,0,3.8,6.0,73,0.00,,,0.00,meteobridge,2013-06-02 21:07:00,
2013-06-02 16:12:00,66.7,57.4,30.03,North,0,4.5,4.5,72,0.00,,,0.00,meteobridge,2013-06-02 21:12:00,
2013-06-02 16:17:00,66.7,57.7,30.02,West,270,1.6,1.6,73,0.00,,,0.00,meteobridge,2013-06-02 21:17:00,
2013-06-02 16:22:00,66.7,57.4,30.03,SW,225,4.5,6.0,72,0.00,,,0.00,meteobridge,2013-06-02 21:22:00,
2013-06-02 16:27:00,66.2,56.5,30.02,North,0,2.2,3.8,71,0.00,,,0.00,meteobridge,2013-06-02 21:27:00,
2013-06-02 16:33:00,65.8,56.5,30.03,NW,315,1.6,2.2,72,0.00,,,0.00,meteobridge,2013-06-02 21:33:00,
2013-06-02 16:38:00,65.8,57.0,30.02,West,270,2.2,3.8,73,0.00,,,0.00,meteobridge,2013-06-02 21:38:00,
2013-06-02 16:43:00,65.8,57.0,30.02,SW,225,5.4,5.4,73,0.00,,,0.00,meteobridge,2013-06-02 21:43:00,
2013-06-02 16:48:00,66.2,57.2,30.02,West,270,1.6,1.6,73,0.00,,,0.00,meteobridge,2013-06-02 21:48:00,
2013-06-02 16:53:00,66.6,58.1,30.02,West,270,1.6,1.6,74,0.00,,,0.00,meteobridge,2013-06-02 21:53:00,
2013-06-02 16:58:00,67.1,58.5,30.02,West,270,1.6,2.2,74,0.00,,,0.00,meteobridge,2013-06-02 21:58:00,
2013-06-02 17:04:00,67.1,57.4,30.02,NW,315,2.2,2.2,71,0.00,,,0.00,meteobridge,2013-06-02 22:04:00,
2013-06-02 17:09:00,67.1,57.0,30.03,NW,315,1.6,3.8,70,0.00,,,0.00,meteobridge,2013-06-02 22:09:00,
2013-06-02 17:14:00,66.7,57.4,30.02,West,270,1.6,2.2,72,0.00,,,0.00,meteobridge,2013-06-02 22:14:00,
2013-06-02 17:19:00,66.6,56.5,30.02,NW,315,0.7,2.2,70,0.00,,,0.00,meteobridge,2013-06-02 22:19:00,
2013-06-02 17:24:00,66.4,56.3,30.02,East,90,3.1,3.8,70,0.00,,,0.00,meteobridge,2013-06-02 22:24:00,
2013-06-02 17:29:00,65.8,57.0,30.02,SE,135,0.7,2.2,73,0.00,,,0.00,meteobridge,2013-06-02 22:29:00,
2013-06-02 17:35:00,65.8,57.7,30.02,SW,225,0.7,1.6,75,0.00,,,0.00,meteobridge,2013-06-02 22:35:00,
2013-06-02 17:40:00,65.8,57.7,30.02,NE,45,4.5,4.5,75,0.00,,,0.00,meteobridge,2013-06-02 22:40:00,
2013-06-02 17:45:00,65.5,57.4,30.02,East,90,2.2,3.8,75,0.00,,,0.00,meteobridge,2013-06-02 22:45:00,
2013-06-02 17:50:00,65.3,57.6,30.02,NE,45,4.5,5.4,76,0.00,,,0.00,meteobridge,2013-06-02 22:50:00,
2013-06-02 17:55:00,64.9,57.6,30.02,SW,225,2.2,6.9,77,0.00,,,0.00,meteobridge,2013-06-02 22:55:00,
2013-06-02 18:00:00,64.8,57.4,30.02,NW,315,1.6,1.6,77,0.00,,,0.00,meteobridge,2013-06-02 23:00:00,
2013-06-02 18:05:00,64.6,56.8,30.02,SW,225,1.6,2.2,76,0.00,,,0.00,meteobridge,2013-06-02 23:05:00,
2013-06-02 18:11:00,64.6,57.2,30.02,NW,315,3.8,5.4,77,0.00,,,0.00,meteobridge,2013-06-02 23:11:00,
2013-06-02 18:16:00,64.6,57.2,30.02,NW,315,1.6,1.6,77,0.00,,,0.00,meteobridge,2013-06-02 23:16:00,
2013-06-02 18:21:00,64.4,57.4,30.02,East,90,1.6,1.6,78,0.00,,,0.00,meteobridge,2013-06-02 23:21:00,
2013-06-02 18:26:00,64.4,57.4,30.02,SE,135,0.7,3.1,78,0.00,,,0.00,meteobridge,2013-06-02 23:26:00,
2013-06-02 18:31:00,64.0,57.0,30.02,South,180,3.1,6.9,78,0.00,,,0.00,meteobridge,2013-06-02 23:31:00,
2013-06-02 18:36:00,63.7,57.0,30.03,South,180,2.2,2.2,79,0.00,,,0.00,meteobridge,2013-06-02 23:36:00,
2013-06-02 18:42:00,63.5,57.2,30.02,South,180,1.6,1.6,80,0.00,,,0.00,meteobridge,2013-06-02 23:42:00,
2013-06-02 18:47:00,63.5,57.2,30.02,NE,45,3.1,3.1,80,0.00,,,0.00,meteobridge,2013-06-02 23:47:00,
2013-06-02 18:52:00,63.3,57.0,30.02,NE,45,1.6,1.6,80,0.00,,,0.00,meteobridge,2013-06-02 23:52:00,
2013-06-02 18:57:00,63.3,57.0,30.03,NE,45,2.2,3.1,80,0.00,,,0.00,meteobridge,2013-06-02 23:57:00,
2013-06-02 19:02:00,62.8,56.5,30.03,North,0,0.7,2.2,80,0.00,,,0.00,meteobridge,2013-06-03 00:02:00,
2013-06-02 19:07:00,62.8,56.5,30.03,East,90,0.0,1.6,80,0.00,,,0.00,meteobridge,2013-06-03 00:07:00,
2013-06-02 19:13:00,62.8,56.5,30.03,NW,315,3.1,3.1,80,0.00,,,0.00,meteobridge,2013-06-03 00:13:00,
2013-06-02 19:18:00,62.6,55.9,30.03,ENE,68,0.0,3.1,79,0.00,,,0.00,meteobridge,2013-06-03 00:18:00,
2013-06-02 19:23:00,62.6,56.3,30.03,NW,315,2.2,3.1,80,0.00,,,0.00,meteobridge,2013-06-03 00:23:00,
2013-06-02 19:28:00,62.4,56.1,30.03,East,90,3.1,3.1,80,0.00,,,0.00,meteobridge,2013-06-03 00:28:00,
2013-06-02 19:33:00,62.2,55.6,30.03,ENE,68,4.5,6.0,79,0.00,,,0.00,meteobridge,2013-06-03 00:33:00,
2013-06-02 19:38:00,62.1,55.4,30.03,East,90,3.8,3.8,79,0.00,,,0.00,meteobridge,2013-06-03 00:38:00,
2013-06-02 19:44:00,61.9,55.6,30.03,East,90,2.2,3.1,80,0.00,,,0.00,meteobridge,2013-06-03 00:44:00,
2013-06-02 19:49:00,61.7,55.8,30.03,East,90,3.1,4.5,81,0.00,,,0.00,meteobridge,2013-06-03 00:49:00,
2013-06-02 19:54:00,61.7,55.8,30.03,SSW,203,2.2,3.1,81,0.00,,,0.00,meteobridge,2013-06-03 00:54:00,
2013-06-02 19:59:00,61.5,55.9,30.03,South,180,2.2,5.4,82,0.00,,,0.00,meteobridge,2013-06-03 00:59:00,
2013-06-02 20:04:00,61.3,55.8,30.03,NW,315,3.8,3.8,82,0.00,,,0.00,meteobridge,2013-06-03 01:04:00,
2013-06-02 20:09:00,61.2,55.6,30.03,West,270,3.1,3.1,82,0.00,,,0.00,meteobridge,2013-06-03 01:09:00,
2013-06-02 20:15:00,61.0,55.8,30.03,NE,45,3.8,3.8,83,0.00,,,0.00,meteobridge,2013-06-03 01:15:00,
2013-06-02 20:20:00,60.8,55.2,30.03,NW,315,0.7,1.6,82,0.00,,,0.00,meteobridge,2013-06-03 01:20:00,
2013-06-02 20:25:00,60.8,55.6,30.03,West,270,3.8,3.8,83,0.00,,,0.00,meteobridge,2013-06-03 01:25:00,
2013-06-02 20:30:00,60.8,55.6,30.03,East,90,2.2,2.2,83,0.00,,,0.00,meteobridge,2013-06-03 01:30:00,
2013-06-02 20:35:00,60.8,55.2,30.03,North,0,3.1,3.1,82,0.00,,,0.00,meteobridge,2013-06-03 01:35:00,
2013-06-02 20:40:00,60.8,55.2,30.03,North,0,1.6,6.0,82,0.00,,,0.00,meteobridge,2013-06-03 01:40:00,
2013-06-02 20:46:00,60.8,55.6,30.03,NW,315,3.8,4.5,83,0.00,,,0.00,meteobridge,2013-06-03 01:46:00,
2013-06-02 20:51:00,60.8,55.2,30.03,NE,45,3.8,3.8,82,0.00,,,0.00,meteobridge,2013-06-03 01:51:00,
2013-06-02 20:56:00,60.8,54.9,30.04,NE,45,1.6,1.6,81,0.00,,,0.00,meteobridge,2013-06-03 01:56:00,
2013-06-02 21:01:00,60.8,54.9,30.04,SSE,158,1.6,1.6,81,0.00,,,0.00,meteobridge,2013-06-03 02:01:00,
2013-06-02 21:06:00,60.8,54.7,30.04,NE,45,0.7,1.6,80,0.00,,,0.00,meteobridge,2013-06-03 02:06:00,
2013-06-02 21:11:00,60.8,54.9,30.04,North,0,0.0,1.6,81,0.00,,,0.00,meteobridge,2013-06-03 02:11:00,
2013-06-02 21:16:00,60.8,54.7,30.04,West,270,0.7,0.7,80,0.00,,,0.00,meteobridge,2013-06-03 02:16:00,
2013-06-02 21:21:00,60.8,54.9,30.04,West,270,0.0,0.0,81,0.00,,,0.00,meteobridge,2013-06-03 02:21:00,
2013-06-02 21:27:00,60.8,54.7,30.04,NW,315,0.7,2.2,80,0.00,,,0.00,meteobridge,2013-06-03 02:27:00,
2013-06-02 21:32:00,60.8,54.9,30.05,NW,315,0.7,0.7,81,0.00,,,0.00,meteobridge,2013-06-03 02:32:00,
2013-06-02 21:37:00,60.8,54.7,30.05,NNW,338,0.0,3.1,80,0.00,,,0.00,meteobridge,2013-06-03 02:37:00,
2013-06-02 21:42:00,60.8,55.2,30.05,NNW,338,0.0,0.0,82,0.00,,,0.00,meteobridge,2013-06-03 02:42:00,
2013-06-02 21:47:00,60.8,54.9,30.05,NNW,338,1.6,2.2,81,0.00,,,0.00,meteobridge,2013-06-03 02:47:00,
2013-06-02 21:52:00,60.8,54.9,30.06,NNW,338,0.0,0.7,81,0.00,,,0.00,meteobridge,2013-06-03 02:52:00,
2013-06-02 21:58:00,60.8,54.9,30.05,NNW,338,0.7,1.6,81,0.00,,,0.00,meteobridge,2013-06-03 02:58:00,
2013-06-02 22:03:00,60.8,55.2,30.05,NNW,338,0.0,0.0,82,0.00,,,0.00,meteobridge,2013-06-03 03:03:00,
2013-06-02 22:08:00,60.6,55.4,30.05,North,0,3.1,3.1,83,0.00,,,0.00,meteobridge,2013-06-03 03:08:00,
2013-06-02 22:13:00,60.6,55.4,30.06,NW,315,0.0,1.6,83,0.00,,,0.00,meteobridge,2013-06-03 03:13:00,
2013-06-02 22:18:00,60.6,55.4,30.05,NW,315,0.7,2.2,83,0.00,,,0.00,meteobridge,2013-06-03 03:18:00,
2013-06-02 22:23:00,60.6,55.4,30.06,NW,315,1.6,2.2,83,0.00,,,0.00,meteobridge,2013-06-03 03:23:00,
2013-06-02 22:29:00,60.4,55.2,30.06,NW,315,0.7,1.6,83,0.00,,,0.00,meteobridge,2013-06-03 03:29:00,
2013-06-02 22:34:00,60.4,55.2,30.06,NW,315,0.7,2.2,83,0.00,,,0.00,meteobridge,2013-06-03 03:34:00,
2013-06-02 22:39:00,60.4,55.2,30.06,NW,315,0.0,2.2,83,0.00,,,0.00,meteobridge,2013-06-03 03:39:00,
2013-06-02 22:44:00,60.3,55.0,30.06,NW,315,0.7,0.7,83,0.00,,,0.00,meteobridge,2013-06-03 03:44:00,
2013-06-02 22:49:00,60.3,55.0,30.06,NW,315,0.0,0.0,83,0.00,,,0.00,meteobridge,2013-06-03 03:49:00,
2013-06-02 22:54:00,60.3,55.4,30.06,NW,315,0.0,0.0,84,0.00,,,0.00,meteobridge,2013-06-03 03:54:00,
2013-06-02 23:00:00,60.3,55.4,30.06,NW,315,0.0,0.0,84,0.00,,,0.00,meteobridge,2013-06-03 04:00:00,
2013-06-02 23:01:00,60.3,55.4,30.06,NW,315,0.0,0.0,84,0.00,,,0.00,meteobridge,2013-06-03 04:01:00,
2013-06-02 23:02:00,60.3,55.4,30.06,NW,315,0.0,0.0,84,0.00,,,0.00,meteobridge,2013-06-03 04:02:00,
2013-06-02 23:08:00,60.1,55.2,30.06,NW,315,0.0,0.0,84,0.00,,,0.00,meteobridge,2013-06-03 04:08:00,
2013-06-02 23:13:00,60.1,55.6,30.06,NW,315,0.0,0.0,85,0.00,,,0.00,meteobridge,2013-06-03 04:13:00,
2013-06-02 23:18:00,60.1,55.6,30.06,NW,315,0.0,0.0,85,0.00,,,0.00,meteobridge,2013-06-03 04:18:00,
2013-06-02 23:23:00,60.1,55.6,30.06,NW,315,0.0,0.7,85,0.00,,,0.00,meteobridge,2013-06-03 04:23:00,
2013-06-02 23:28:00,59.9,55.8,30.06,NW,315,0.0,1.6,86,0.00,,,0.00,meteobridge,2013-06-03 04:28:00,
2013-06-02 23:33:00,59.9,55.8,30.05,NW,315,0.0,0.7,86,0.00,,,0.00,meteobridge,2013-06-03 04:33:00,
2013-06-02 23:39:00,59.9,55.8,30.06,NW,315,0.7,1.6,86,0.00,,,0.00,meteobridge,2013-06-03 04:39:00,
2013-06-02 23:44:00,59.9,55.8,30.05,NW,315,0.0,0.0,86,0.00,,,0.00,meteobridge,2013-06-03 04:44:00,
2013-06-02 23:49:00,59.9,55.8,30.06,East,90,2.2,3.1,86,0.00,,,0.00,meteobridge,2013-06-03 04:49:00,
2013-06-02 23:54:00,59.9,55.4,30.06,SW,225,1.6,2.2,85,0.00,,,0.00,meteobridge,2013-06-03 04:54:00,
2013-06-02 23:59:00,59.9,55.0,30.05,SW,225,0.7,1.6,84,0.00,,,0.00,meteobridge,2013-06-03 04:59:00,